Weather History for Pratica di Mare, Italy

Change the Weather History Date:

Monday, October 28, 2013

  Actual Average Record
Temperature  
Mean Temperature 68 °F -  
Max Temperature 74 °F 64 °F 75 °F (2006)
Min Temperature 63 °F 47 °F 44 °F (2010)
Cooling Degree Days 4    
Growing Degree Days 18 (Base 50)    
Moisture  
Dew Point 65 °F    
Average Humidity 89    
Maximum Humidity 100    
Minimum Humidity 71    
Precipitation  
Precipitation 0.00 in 0.16 in - ()
Sea Level Pressure  
Sea Level Pressure 30.13 in    
Wind  
Wind Speed 8 mph ()    
Max Wind Speed 12 mph    
Max Gust Speed -    
Visibility 6.9 miles    
Events      
Averages and records for this station are not official NWS values.
T = Trace of Precipitation, MM = Missing Value Source: Averaged Metar Reports

Daily Weather History Graph

Daily Weather History Graph

Search for Another Location

Airport:

Trip Planner

Search our weather history database for the weather conditions in past years. The results will help you decide how hot, cold, wet, or windy it might be!

Date:

Astronomy

Oct. 28, 2013 Rise Set
Actual Time 6:37 AM CET 5:09 PM CET
Civil Twilight 6:08 AM CET 5:38 PM CET
Nautical Twilight 5:36 AM CET 6:11 PM CET
Astronomical Twilight 5:03 AM CET 6:43 PM CET
Moon 12:09 AM CET 1:47 PM CET
Length of Visible Light 11h 29m
Length of Day
10h 32m
Last Quarter, 36% of the Moon is Illuminated
Oct 28
Last Quarter
Nov 3
New
Nov 10
First Quarter
Nov 17
Full
Nov 25
Last Quarter

Hourly Weather History & Observations

Time (CET) Temp. Dew Point Humidity Pressure Visibility Wind Dir Wind Speed Gust Speed Precip Events Conditions
12:55 AM 64.4 °F 62.6 °F 94% 30.18 in - ESE 9.2 mph - N/A   Clear
1:00 AM 65 °F 63 °F 92% 30.19 in 7 mi ESE 9.2 mph - -  
1:55 AM 64.4 °F 62.6 °F 94% 30.18 in - East 8.1 mph - N/A   Clear
2:55 AM 64.4 °F 62.6 °F 94% 30.18 in 6.2 mi East 8.1 mph - N/A   Partly Cloudy
3:55 AM 64.4 °F 62.6 °F 94% 30.15 in 6.2 mi ESE 9.2 mph - N/A   Partly Cloudy
4:00 AM 65 °F 62 °F 87% 30.18 in 7 mi ESE 9.2 mph - -   Partly Cloudy
4:55 AM 64.4 °F 60.8 °F 88% 30.15 in 6.2 mi ESE 9.2 mph - N/A   Partly Cloudy
5:55 AM 64.4 °F 60.8 °F 88% 30.12 in 6.2 mi East 9.2 mph - N/A   Scattered Clouds
6:55 AM 64.4 °F 60.8 °F 88% 30.12 in 6.2 mi East 9.2 mph - N/A   Mostly Cloudy
7:00 AM 65 °F 61 °F 83% 30.14 in 7 mi East 9.2 mph - -   Mostly Cloudy
7:55 AM 66.2 °F 60.8 °F 83% 30.15 in 6.2 mi East 9.2 mph - N/A   Partly Cloudy
8:55 AM 68.0 °F 62.6 °F 83% 30.15 in 6.2 mi ESE 9.2 mph - N/A   Scattered Clouds
9:55 AM 71.6 °F 64.4 °F 78% 30.15 in 6.2 mi ESE 11.5 mph - N/A   Partly Cloudy
10:00 AM 71 °F 64 °F 71% 30.17 in 9 mi ESE 11.5 mph - -   Scattered Clouds
10:55 AM 73.4 °F 66.2 °F 78% 30.15 in 6.2 mi SSE 10.4 mph - N/A   Scattered Clouds
11:55 AM 73.4 °F 68.0 °F 83% 30.15 in 6.2 mi SSE 11.5 mph - N/A   Scattered Clouds
12:55 PM 73.4 °F 68.0 °F 83% 30.12 in 6.2 mi SSE 11.5 mph - N/A   Scattered Clouds
1:00 PM 73 °F 69 °F 82% 30.15 in 12 mi SSE 11.5 mph - -   Mostly Cloudy
1:55 PM 73.4 °F 68.0 °F 83% 30.12 in 6.2 mi SSE 10.4 mph - N/A   Scattered Clouds
2:55 PM 73.4 °F 69.8 °F 88% 30.09 in 6.2 mi South 11.5 mph - N/A   Scattered Clouds
3:55 PM 71.6 °F 69.8 °F 94% 30.09 in 6.2 mi South 10.4 mph - N/A   Scattered Clouds
4:00 PM 72 °F 69 °F 87% 30.12 in 12 mi South 10.4 mph - -   Partly Cloudy
4:55 PM 69.8 °F 68.0 °F 94% 30.09 in 6.2 mi SSE 8.1 mph - N/A   Scattered Clouds
5:55 PM 68.0 °F 66.2 °F 94% 30.09 in 6.2 mi South 6.9 mph - N/A   Scattered Clouds
6:55 PM 68.0 °F 66.2 °F 94% 30.09 in 6.2 mi SE 5.8 mph - N/A   Scattered Clouds
7:00 PM 69 °F 67 °F 91% 30.11 in 9 mi SE 5.8 mph - -   Partly Cloudy
7:55 PM 68.0 °F 66.2 °F 94% 30.09 in 6.2 mi ESE 6.9 mph - N/A   Scattered Clouds
8:55 PM 68.0 °F 66.2 °F 94% 30.09 in 6.2 mi ESE 8.1 mph - N/A   Scattered Clouds
9:55 PM 66.2 °F 66.2 °F 100% 30.09 in 6.2 mi East 9.2 mph - N/A   Scattered Clouds
10:00 PM 67 °F 65 °F 93% 30.11 in 9 mi East 9.2 mph - -   Partly Cloudy
10:55 PM 66.2 °F 64.4 °F 94% 30.09 in 6.2 mi East 9.2 mph - N/A   Scattered Clouds
11:55 PM 66.2 °F 64.4 °F 94% 30.09 in 6.2 mi East 8.1 mph - N/A   Partly Cloudy